User: anonymous   Login
Location: Unspecified
(0.0000°N, 0.0000°E)
Time: 21:51:34
(UTC+00:00)
Language:

Meteor 3-6 - Orbit

View from above orbital plane
View from above orbital plane
View from above satellite
View from above satellite

Ground track
Ground track

The orbit data is extracted from the following two-line orbital elements,

1 22969U 94003A   18017.88708497 +.00000175 +00000-0 +42180-3 0  9993
2 22969 082.5627 096.0283 0014235 333.6457 026.3940 13.16984593152825
Epoch (UTC): 17 January 2018 21:17:24
Eccentricity: 0.0014235
inclination: 82.5627°
perigee height: 1185 km
apogee height: 1207 km
right ascension of ascending node: 96.0283°
argument of perigee: 333.6457°
revolutions per day: 13.16984593
mean anomaly at epoch: 26.3940°
orbit number at epoch: 15282

The dashed part of the orbit path shows where the satellite is in the earth's shadow,  

DLR